This demonstration page uses our WeatherBlox Daily Observations layout. Learn more.

Left ArrowRight Arrow

Hourly Observations for April 12, 2016

Temp ( °F °C ) Dew Point ( °F °C ) Humidity (%) Winds ( mph kmh ) Pressure ( in mb ) Visibility ( mi km ) Precip ( " mm )
12:15 am 00:15 Clear 39 4 19 -7 45 45 SE 9 15 30.27 1025 10 16 0.00 0.00
12:35 am 00:35 Clear 37 3 19 -7 48 48 SE 8 13 30.30 1026 10 16 0.00 0.00
12:55 am 00:55 Clear 37 3 19 -7 48 48 SSE 10 17 30.30 1026 10 16 0.00 0.00
1:15 am 01:15 Clear 37 3 19 -7 48 48 SSE 9 15 30.30 1026 10 16 0.00 0.00
1:35 am 01:35 Clear 37 3 19 -7 48 48 SSE 10 17 30.30 1026 10 16 0.00 0.00
1:55 am 01:55 Clear 36 2 18 -8 48 48 SSE 8 13 30.33 1027 10 16 0.00 0.00
2:15 am 02:15 Clear 36 2 18 -8 48 48 SSE 6 9 30.33 1027 10 16 0.00 0.00
2:35 am 02:35 Clear 36 2 18 -8 48 48 SSE 8 13 30.30 1026 10 16 0.00 0.00
2:55 am 02:55 Clear 34 1 18 -8 51 51 S 7 11 30.30 1026 10 16 0.00 0.00
3:15 am 03:15 Clear 34 1 18 -8 51 51 SSE 8 13 30.30 1026 10 16 0.00 0.00
3:35 am 03:35 Clear 34 1 18 -8 51 51 SSE 6 9 30.30 1026 10 16 0.00 0.00
3:55 am 03:55 Clear 34 1 18 -8 51 51 SSE 8 13 30.30 1026 10 16 0.00 0.00
4:15 am 04:15 Clear 34 1 19 -7 56 56 SE 8 13 30.30 1026 10 16 0.00 0.00
4:35 am 04:35 Clear 32 0 19 -7 60 60 SE 8 13 30.30 1026 10 16 0.00 0.00
4:55 am 04:55 Clear 32 0 19 -7 60 60 SSE 6 9 30.30 1026 10 16 0.00 0.00
5:15 am 05:15 Clear 32 0 19 -7 60 60 SSE 7 11 30.30 1026 10 16 0.00 0.00
5:35 am 05:35 Clear 32 0 19 -7 60 60 SSE 8 13 30.30 1026 10 16 0.00 0.00
5:55 am 05:55 Clear 32 0 19 -7 60 60 SSE 8 13 30.30 1026 10 16 0.00 0.00
6:15 am 06:15 Clear 34 1 19 -7 56 56 SSE 10 17 30.30 1026 10 16 0.00 0.00
6:35 am 06:35 Clear 34 1 19 -7 56 56 SSE 10 17 30.30 1026 10 16 0.00 0.00
6:55 am 06:55 Clear 32 0 19 -7 60 60 SSE 8 13 30.30 1026 10 16 0.00 0.00
7:15 am 07:15 Sunny 32 0 19 -7 60 60 SSE 9 15 30.30 1026 10 16 0.00 0.00
7:35 am 07:35 Sunny 34 1 21 -6 60 60 SSE 12 19 30.30 1026 10 16 0.00 0.00
7:55 am 07:55 Sunny 36 2 21 -6 56 56 SSE 9 15 30.30 1026 10 16 0.00 0.00
8:15 am 08:15 Sunny 36 2 21 -6 56 56 S 13 20 30.30 1026 10 16 0.00 0.00
8:35 am 08:35 Sunny 37 3 23 -5 56 56 S 13 20 30.33 1027 10 16 0.00 0.00
8:55 am 08:55 Sunny 41 5 25 -4 53 53 S 14 22 30.27 1025 10 16 0.00 0.00
9:15 am 09:15 Sunny 45 7 28 -2 53 53 S 14 22 30.24 1024 10 16 0.00 0.00
9:35 am 09:35 Sunny 46 8 30 -1 53 53 S 14 22 30.24 1024 10 16 0.00 0.00
9:55 am 09:55 Sunny 48 9 34 1 58 58 S 13 20 30.24 1024 10 16 0.00 0.00
10:15 am 10:15 Sunny 52 11 36 2 54 54 SSW 16 26 30.21 1023 10 16 0.00 0.00
10:35 am 10:35 Sunny 54 12 36 2 51 51 SSW 18 30 30.18 1022 10 16 0.00 0.00
10:55 am 10:55 Sunny 55 13 34 1 44 44 SSW 21 33 30.18 1022 10 16 0.00 0.00
11:15 am 11:15 Sunny 57 14 32 0 39 39 SSW 23 37 30.15 1021 10 16 0.00 0.00
11:35 am 11:35 Sunny 59 15 30 -1 34 34 S 24 39 30.15 1021 10 16 0.00 0.00
11:55 am 11:55 Sunny 61 16 30 -1 31 31 SSW 23 37 30.15 1021 10 16 0.00 0.00
12:15 pm 12:15 Sunny 61 16 34 1 36 36 SSW 21 33 30.15 1021 10 16 0.00 0.00
12:35 pm 12:35 Sunny 63 17 34 1 34 34 SSW 22 35 30.09 1019 10 16 0.00 0.00
12:55 pm 12:55 Sunny 63 17 34 1 34 34 SSW 25 41 30.09 1019 10 16 0.00 0.00
1:15 pm 13:15 Sunny 63 17 34 1 34 34 SSW 26 43 30.09 1019 10 16 0.00 0.00
1:35 pm 13:35 Sunny 63 17 34 1 34 34 S 26 43 30.06 1018 10 16 0.00 0.00
1:55 pm 13:55 Sunny 64 18 34 1 32 32 SSW 25 41 30.06 1018 10 16 0.00 0.00
2:15 pm 14:15 Sunny 64 18 34 1 32 32 SSW 22 35 30.03 1017 10 16 0.00 0.00
2:35 pm 14:35 Sunny 66 19 34 1 30 30 S 25 41 30.03 1017 10 16 0.00 0.00
2:55 pm 14:55 Sunny 66 19 34 1 30 30 SSW 26 43 30.03 1017 10 16 0.00 0.00
3:15 pm 15:15 Sunny 66 19 32 0 28 28 SSW 23 37 30.03 1017 10 16 0.00 0.00
3:35 pm 15:35 Sunny 68 20 32 0 26 26 S 22 35 29.97 1015 10 16 0.00 0.00
3:55 pm 15:55 Sunny 68 20 32 0 26 26 SSW 31 50 29.97 1015 10 16 0.00 0.00
4:15 pm 16:15 Sunny 68 20 32 0 26 26 S 23 37 29.97 1015 10 16 0.00 0.00
4:35 pm 16:35 Sunny 68 20 34 1 28 28 S 26 43 29.94 1014 10 16 0.00 0.00
4:55 pm 16:55 Sunny 68 20 32 0 26 26 S 28 44 29.94 1014 10 16 0.00 0.00
5:15 pm 17:15 Sunny 68 20 34 1 28 28 SSW 25 41 29.94 1014 10 16 0.00 0.00
5:35 pm 17:35 Sunny 68 20 32 0 26 26 S 23 37 29.94 1014 10 16 0.00 0.00
5:55 pm 17:55 Sunny 68 20 32 0 26 26 S 28 44 29.94 1014 10 16 0.00 0.00
6:15 pm 18:15 Sunny 66 19 32 0 28 28 SSW 22 35 29.97 1015 10 16 0.00 0.00
6:35 pm 18:35 Sunny 66 19 32 0 28 28 SSW 26 43 29.97 1015 10 16 0.00 0.00
6:55 pm 18:55 Sunny 66 19 32 0 28 28 S 23 37 29.97 1015 10 16 0.00 0.00
7:15 pm 19:15 Sunny 64 18 32 0 30 30 S 20 31 29.97 1015 10 16 0.00 0.00
7:35 pm 19:35 Sunny 64 18 32 0 30 30 S 17 28 29.97 1015 10 16 0.00 0.00
7:55 pm 19:55 Sunny 63 17 30 -1 30 30 S 18 30 29.97 1015 10 16 0.00 0.00
8:15 pm 20:15 Clear 61 16 30 -1 31 31 S 17 28 29.97 1015 10 16 0.00 0.00
8:35 pm 20:35 Clear 59 15 30 -1 34 34 S 16 26 30.00 1016 10 16 0.00 0.00
8:55 pm 20:55 Clear 57 14 28 -2 33 33 S 14 22 30.03 1017 10 16 0.00 0.00
9:15 pm 21:15 Clear 57 14 28 -2 33 33 S 16 26 30.03 1017 10 16 0.00 0.00
9:35 pm 21:35 Clear 55 13 28 -2 36 36 S 17 28 30.03 1017 10 16 0.00 0.00
9:55 pm 21:55 Clear 55 13 28 -2 36 36 S 16 26 30.03 1017 10 16 0.00 0.00
10:15 pm 22:15 Clear 54 12 28 -2 38 38 S 17 28 30.06 1018 10 16 0.00 0.00
10:35 pm 22:35 Clear 54 12 28 -2 38 38 S 18 30 30.06 1018 10 16 0.00 0.00
10:55 pm 22:55 Clear 54 12 28 -2 38 38 S 16 26 30.06 1018 10 16 0.00 0.00
11:15 pm 23:15 Clear 52 11 30 -1 44 44 S 14 22 30.06 1018 10 16 0.00 0.00
11:35 pm 23:35 Clear 52 11 30 -1 44 44 S 14 22 30.06 1018 10 16 0.00 0.00
11:55 pm 23:55 Clear 52 11 28 -2 41 41 S 14 22 30.06 1018 10 16 0.00 0.00

Powered by AerisWeather